Miscellaneous Local Product
Issued by NWS Hastings, NE

Home | Current Version | Previous Version | Text Only | Print | Product List | Glossary Off
Versions: 1 2 3 4 5 6 7 8 9 10 11 12 13 14 15 16 17 18 19 20 21 22 23 24 25 26 27 28 29 30 31 32 33 34 35 36 37 38 39 40 41 42 43 44 45 46 47 48 49 50

000
AXUS43 KGID 231302
MISGRI

GID CWA HOURLY WEATHER ROUNDUP
NATIONAL WEATHER SERVICE HASTINGS NE
800 AM CDT SAT MAY 23 2015

NOTE: "FAIR" INDICATES FEW OR NO CLOUDS BELOW 12,000 FEET WITH NO
SIGNIFICANT WEATHER AND/OR OBSTRUCTIONS TO VISIBILITY.

...SOUTH CENTRAL NEBRASKA...

CITY           SKY/WX    TMP DP  RH WIND       PRES   REMARKS
GRAND ISLAND   CLOUDY    53  51  93 SE12      30.11F
HASTINGS       CLOUDY    53  51  93 S15G23    30.12F
KEARNEY        CLOUDY    54  52  94 SE13      30.12R
ORD            CLOUDY    52  50  93 SE8       30.09F
YORK           CLOUDY    55  52  88 SE9       30.15F
AURORA         CLOUDY    54  53  96 SE13      30.12F
LEXINGTON      CLOUDY    55  54  97 SE13      30.09R FOG
HOLDREGE       CLOUDY    52  51  96 S18       30.09S FOG
HEBRON         CLOUDY    55  51  87 SE9       30.15F

...NEBRASKA PANHANDLE...

CITY           SKY/WX    TMP DP  RH WIND       PRES   REMARKS
CHADRON        CLOUDY    50  46  86 E6        30.04F
ALLIANCE       FOG       49  48  97 E7        30.04R VSB 1/4
SCOTTSBLUFF    FOG       47  47 100 E10       30.02F VSB 3/4
SIDNEY         CLOUDY    50  49  96 E6        30.03F FOG

...WESTERN AND NORTH CENTRAL NEBRASKA...

CITY           SKY/WX    TMP DP  RH WIND       PRES   REMARKS
VALENTINE      FOG       50  49  96 NE8       30.08F VSB 1/2
AINSWORTH      CLOUDY    53  53 100 E6        30.09F FOG
ONEILL         CLOUDY    54  51  89 SE6       30.14S
BROKEN BOW     FOG       53  52  96 SE9       30.09S VSB 1/2
IMPERIAL       CLOUDY    52  51  97 SE15      30.04R
NORTH PLATTE   CLOUDY    53  51  93 SE6       30.07R
MCCOOK         CLOUDY    53  52  96 SE13G21   30.07R

...EASTERN NEBRASKA...

CITY           SKY/WX    TMP DP  RH WIND       PRES   REMARKS
NORFOLK        CLOUDY    55  51  86 SE7       30.16F
SO SIOUX CITY  CLOUDY    58  50  75 SE7       30.21R
TEKAMAH        CLOUDY    59  52  77 SE6       30.21R
COLUMBUS       CLOUDY    54  46  76 SE7       30.19F
ALBION         CLOUDY    53  49  86 SE9       30.14F
OMAHA EPPLEY   CLOUDY    59  52  77 S8        30.21S
OFFUTT AFB     LGT RAIN  57  53  86 S5        30.21S
MILLARD        RAIN      58  53  82 SE5       30.21S
LINCOLN        CLOUDY    57  53  86 E6        30.18F
NEBRASKA CITY  LGT RAIN  56  55  97 SE7       30.20F
BEATRICE       CLOUDY    55  52  89 SE7       30.17F
FALLS CITY     CLOUDY    57  55  93 E9        30.20F

...NORTHERN KANSAS...

CITY           SKY/WX    TMP DP  RH WIND       PRES   REMARKS
GOODLAND       FOG       53  53 100 SE18G24   30.04R VSB 1/4
HILL CITY      CLOUDY    55  52  89 SE9       30.08F
NORTON         CLOUDY    54  50  87 E10       30.07F
PHILLIPSBURG   CLOUDY    57  57 100 E8        30.13R
SMITH CENTER   CLOUDY    52  52 100 SE10      30.15R FOG
HAYS           CLOUDY    54  46  76 E10       30.11F
RUSSELL        CLOUDY    55  54  96 SE7       30.11S
CONCORDIA      CLOUDY    54  53  97 SE8       30.16S
SALINA         CLOUDY    58  54  86 S12       30.16R
TOPEKA         CLOUDY    60  54  80 SE9       30.19F



USA.gov is the U.S. government's official web portal to all federal, state and local government web resources and services.